Location: Auckland
(36.8670°S, 174.7670°E)
Time: 10:10:37
(UTC+12:00)

Tiros 1 despin weight - Pass Details

Date: 26 July 2019
Orbit: 594 x 642 km, 48.2° (Epoch: 20 August)

Event Time Altitude Azimuth Distance (km) Brightness Sun altitude
Rises 23:57:26 0° 269° (W) 2,845 - -71.6°
Reaches altitude 10° 00:00:01 10° 256° (WSW) 1,945 - -71.8°
Maximum altitude 00:03:48 26° 198° (SSW) 1,191 - -72.0°
Drops below altitude 10° 00:07:36 10° 140° (SE) 1,957 - -72.2°
Sets 00:10:13 0° 127° (SE) 2,867 - -72.4°
